Tracking 18840 objects as of 18-November-2017
HD Live streaming from Space Station
objects crossing your sky now

COSMOS 1023

Track COSMOS 1023 now!
10-day predictions
COSMOS 1023 is classified as:


NORAD ID: 10961
Int'l Code: 1978-063A
Perigee: 765.0 km
Apogee: 789.8 km
Inclination: 74.1 °
Period: 100.2 minutes
Semi major axis: 7148 km
RCS: 3.0969 m2 (large)
Launch date: June 21, 1978
Source: Commonwealth of Independent States (former USSR) (CIS)
Launch site: PLESETSK MISSILE AND SPACE COMPLEX (PKMTR)
aabbcc
Your satellite tracking list
Your tracking list is empty




NASA's NSSDC Master Catalog

Two Line Element Set (TLE):
1 10961U 78063A   17321.78625621  .00000015  00000-0  14074-4 0  9998
2 10961  74.0776  73.7436 0017399 307.3855  52.5714 14.36445522 63188
Source of the keplerian elements: AFSPC